Weather in Kosulino

Russia / Sverdlovsk Oblast     56°44′10″N   60°57′45″E
temp.,
°C
wind,
m/s
gust,
m/s
humid.,
%
clouds,
%
prec.,
mm/h
press.,
hPa
HPBL,
m
25 january, mon
mon2523:00−17sse3596100 1.1 1028193
02:00−15sse2297100 0.3 102763
05:00−13wsw0196100 0.4 102821
08:00−12wnw1196100 0.0 102821
11:00−8sw1196100 0.1 102962
14:00−3sse1297100 0.4 1028125
17:00+1wsw51198100 0.9 1028526
20:00−2wsw5148899 0.0 1029464
26 january, tue
tue2623:00−3wsw4139091 0.0 1029475
02:00−3w5148796 0.0 1029567
05:00−3w4128998 0.0 1029658
08:00−3w4128998 0.0 1029632
11:00−4w5138896 0.0 1029581
14:00−3w5118878 0.0 1028674
17:00−2wsw4108889 0.0 1028732
20:00−2wsw41190100 0.0 1028699
27 january, wed
wed2723:00−5w41289100 0.0 1028593
02:00−6wsw31292100 0.0 1028547
05:00−5w51488100 0.0 1028575
08:00−5w41387100 0.0 1028544
11:00−4w41488100 0.0 1028596
14:00−2w5138421 0.0 1028682
17:00−4wsw379124 0.0 1028174
20:00−5sw31091100 0.0 1028340
28 january, thu
thu2823:00−6sw3109287 0.0 1027266
02:00−6sw399236 0.0 1027247
05:00−6sw3119066 0.0 1026328
08:00−6sw4138595 0.0 1026381
11:00−4sw4138468 0.0 1026488
14:000sw4118188 0.0 1025647
17:00−1sw3108494 0.0 1024392
20:00−3sw31285100 0.0 1024374
29 january, fri
fri2923:00−3sw3985100 0.0 1023261
02:00−4sw3686100 0.0 1023126
05:00−5sw3586100 0.0 1023102
08:00−6sw2385100 0.0 102348
11:00−5sw2283100 0.0 102361
14:00−1se1284100 0.0 102286
17:00−5se2387100 0.0 102229
20:00−9e2389100 0.0 102232